Year,Month,Day,Hour,Minute,Value (Times are PST for temperature in C)
2008,12,12,00,00,1.30
2008,12,12,00,01,1.30
2008,12,12,00,02,1.30
2008,12,12,00,03,1.30
2008,12,12,00,04,1.30
2008,12,12,00,05,1.30
2008,12,12,00,06,1.30
2008,12,12,00,07,1.30
2008,12,12,00,08,1.30
2008,12,12,00,09,1.30
2008,12,12,00,10,1.30
2008,12,12,00,11,1.30
2008,12,12,00,12,1.30
2008,12,12,00,13,1.30
2008,12,12,00,14,1.30
2008,12,12,00,15,1.30
2008,12,12,00,16,1.40
2008,12,12,00,17,1.50
2008,12,12,00,18,1.60
2008,12,12,00,19,1.60
2008,12,12,00,20,1.70
2008,12,12,00,21,1.70
2008,12,12,00,22,1.70
2008,12,12,00,23,1.70
2008,12,12,00,24,1.70
2008,12,12,00,25,1.70
2008,12,12,00,26,1.70
2008,12,12,00,27,1.70
2008,12,12,00,28,1.70
2008,12,12,00,29,1.70
2008,12,12,00,30,1.70
2008,12,12,00,31,1.70
2008,12,12,00,32,1.70
2008,12,12,00,33,1.70
2008,12,12,00,34,1.70
2008,12,12,00,35,1.70
2008,12,12,00,36,1.70
2008,12,12,00,37,1.70
2008,12,12,00,38,1.80
2008,12,12,00,39,1.80
2008,12,12,00,40,1.80
2008,12,12,00,41,1.80
2008,12,12,00,42,1.80
2008,12,12,00,43,1.90
2008,12,12,00,44,1.80
2008,12,12,00,45,1.90
2008,12,12,00,46,1.90
2008,12,12,00,47,1.90
2008,12,12,00,48,1.90
2008,12,12,00,49,1.90
2008,12,12,00,50,2.00
2008,12,12,00,51,2.00
2008,12,12,00,52,2.00
2008,12,12,00,53,1.90
2008,12,12,00,54,1.90
2008,12,12,00,55,1.90
2008,12,12,00,56,1.90
2008,12,12,00,57,1.90
2008,12,12,00,58,1.90
2008,12,12,00,59,1.90
2008,12,12,01,00,1.90
2008,12,12,01,01,1.90
2008,12,12,02,02,2.30
2008,12,12,02,03,2.30
2008,12,12,02,04,2.30
2008,12,12,02,05,2.40
2008,12,12,02,06,2.40
2008,12,12,02,07,2.40
2008,12,12,02,08,2.40
2008,12,12,02,09,2.40
2008,12,12,02,10,2.40
2008,12,12,02,11,2.40
2008,12,12,02,12,2.50
2008,12,12,02,13,2.50
2008,12,12,02,14,2.50
2008,12,12,02,15,2.50
2008,12,12,02,16,2.60
2008,12,12,02,17,2.60
2008,12,12,02,18,2.60
2008,12,12,02,19,2.60
2008,12,12,02,20,2.60
2008,12,12,02,21,2.60
2008,12,12,02,22,2.60
2008,12,12,02,23,2.70
2008,12,12,02,24,2.70
2008,12,12,02,25,2.70
2008,12,12,02,26,2.80
2008,12,12,02,27,2.80
2008,12,12,02,28,2.80
2008,12,12,02,29,2.80
2008,12,12,02,30,2.80
2008,12,12,02,31,2.80
2008,12,12,02,32,2.80
2008,12,12,02,33,2.80
2008,12,12,02,34,2.80
2008,12,12,02,35,2.80
2008,12,12,02,36,2.80
2008,12,12,02,37,2.80
2008,12,12,02,38,2.80
2008,12,12,02,39,2.80
2008,12,12,02,40,2.80
2008,12,12,02,41,2.80
2008,12,12,02,42,2.80
2008,12,12,02,43,2.80
2008,12,12,02,44,2.80
2008,12,12,02,45,2.80
2008,12,12,02,46,2.80
2008,12,12,02,47,2.80
2008,12,12,02,48,2.90
2008,12,12,02,49,2.90
2008,12,12,02,50,2.90
2008,12,12,02,51,2.90
2008,12,12,02,52,2.90
2008,12,12,02,53,2.90
2008,12,12,02,54,2.90
2008,12,12,02,55,2.90
2008,12,12,02,56,2.90
2008,12,12,02,57,2.90
2008,12,12,02,58,2.80
2008,12,12,02,59,2.90
2008,12,12,03,00,2.90
2008,12,12,03,01,2.90
2008,12,12,03,02,2.90
2008,12,12,03,03,2.90
2008,12,12,03,04,2.90
2008,12,12,03,05,2.90
2008,12,12,03,06,2.90
2008,12,12,03,07,2.90
2008,12,12,03,08,2.90
2008,12,12,03,09,2.90
2008,12,12,03,10,2.90
2008,12,12,03,11,2.90
2008,12,12,03,12,2.90
2008,12,12,03,13,2.90
2008,12,12,03,14,2.90
2008,12,12,03,15,3.00
2008,12,12,03,16,3.00
2008,12,12,03,17,2.90
2008,12,12,03,18,3.00
2008,12,12,03,19,3.00
2008,12,12,03,20,3.00
2008,12,12,03,21,3.00
2008,12,12,03,22,3.00
2008,12,12,03,23,3.00
2008,12,12,03,24,3.00
2008,12,12,03,25,2.90
2008,12,12,03,26,2.90
2008,12,12,03,27,2.90
2008,12,12,03,28,2.90
2008,12,12,03,29,2.90
2008,12,12,03,30,3.00
2008,12,12,03,31,2.90
2008,12,12,03,32,2.90
2008,12,12,03,33,3.00
2008,12,12,03,34,2.90
2008,12,12,03,35,3.00
2008,12,12,03,36,3.00
2008,12,12,03,37,3.00
2008,12,12,03,38,3.00
2008,12,12,03,39,3.00
2008,12,12,03,40,3.00
2008,12,12,03,41,3.00
2008,12,12,03,42,3.00
2008,12,12,03,43,3.00
2008,12,12,03,44,3.10
2008,12,12,03,45,3.00
2008,12,12,03,46,3.10
2008,12,12,03,47,3.10
2008,12,12,03,48,3.10
2008,12,12,03,49,3.10
2008,12,12,03,50,3.10
2008,12,12,03,51,3.10
2008,12,12,03,52,3.10
2008,12,12,03,53,3.10
2008,12,12,03,54,3.10
2008,12,12,03,55,3.10
2008,12,12,03,56,3.10
2008,12,12,03,57,3.10
2008,12,12,03,58,3.10
2008,12,12,03,59,3.10
2008,12,12,04,00,3.10
2008,12,12,04,01,3.10
2008,12,12,04,02,3.10
2008,12,12,04,03,3.10
2008,12,12,04,04,3.10
2008,12,12,04,05,3.20
2008,12,12,04,06,3.20
2008,12,12,04,07,3.20
2008,12,12,04,08,3.20
2008,12,12,04,09,3.20
2008,12,12,04,10,3.20
2008,12,12,04,11,3.20
2008,12,12,04,12,3.20
2008,12,12,04,13,3.20
2008,12,12,04,14,3.30
2008,12,12,04,15,3.30
2008,12,12,04,16,3.30
2008,12,12,04,17,3.30
2008,12,12,04,18,3.30
2008,12,12,04,19,3.30
2008,12,12,04,20,3.30
2008,12,12,04,21,3.30
2008,12,12,04,22,3.30
2008,12,12,04,23,3.30
2008,12,12,04,24,3.30
2008,12,12,04,25,3.30
2008,12,12,04,26,3.30
2008,12,12,04,27,3.30
2008,12,12,04,28,3.30
2008,12,12,04,29,3.30
2008,12,12,04,30,3.30
2008,12,12,04,31,3.30
2008,12,12,04,32,3.30
2008,12,12,04,33,3.40
2008,12,12,04,34,3.40
2008,12,12,04,35,3.40
2008,12,12,04,36,3.50
2008,12,12,04,37,3.50
2008,12,12,04,38,3.50
2008,12,12,04,39,3.60
2008,12,12,04,40,3.60
2008,12,12,04,41,3.70
2008,12,12,04,42,3.70
2008,12,12,04,43,3.80
2008,12,12,04,44,3.80
2008,12,12,04,45,3.80
2008,12,12,04,46,3.80
2008,12,12,04,47,3.80
2008,12,12,04,48,3.80
2008,12,12,04,49,3.90
2008,12,12,04,50,3.90
2008,12,12,04,51,3.90
2008,12,12,04,52,3.90
2008,12,12,04,53,4.00
2008,12,12,04,54,4.00
2008,12,12,04,55,4.10
2008,12,12,04,56,4.10
2008,12,12,04,57,4.10
2008,12,12,04,58,4.20
2008,12,12,04,59,4.20
2008,12,12,05,00,4.20
2008,12,12,05,01,4.30
2008,12,12,05,02,4.30
2008,12,12,05,03,4.30
2008,12,12,05,04,4.30
2008,12,12,05,05,4.30
2008,12,12,05,06,4.30
2008,12,12,05,07,4.30
2008,12,12,05,08,4.30
2008,12,12,05,09,4.30
2008,12,12,05,10,4.30
2008,12,12,05,11,4.30
2008,12,12,05,12,4.30
2008,12,12,05,13,4.30
2008,12,12,05,14,4.30
2008,12,12,05,15,4.30
2008,12,12,05,16,4.30
2008,12,12,05,17,4.30
2008,12,12,05,18,4.30
2008,12,12,05,19,4.30
2008,12,12,05,20,4.30
2008,12,12,05,21,4.30
2008,12,12,05,22,4.30
2008,12,12,05,23,4.30
2008,12,12,05,24,4.20
2008,12,12,05,25,4.20
2008,12,12,05,26,4.20
2008,12,12,05,27,4.20
2008,12,12,05,28,4.20
2008,12,12,05,29,4.20
2008,12,12,05,30,4.20
2008,12,12,05,31,4.20
2008,12,12,05,32,4.20
2008,12,12,05,33,4.20
2008,12,12,05,34,4.20
2008,12,12,05,35,4.10
2008,12,12,05,36,4.10
2008,12,12,05,37,4.10
2008,12,12,05,38,4.10
2008,12,12,05,39,4.10
2008,12,12,05,40,4.10
2008,12,12,05,41,4.10
2008,12,12,05,42,4.10
2008,12,12,05,43,4.10
2008,12,12,05,44,4.10
2008,12,12,05,45,4.10
2008,12,12,05,46,4.10
2008,12,12,05,47,4.10
2008,12,12,05,48,4.10
2008,12,12,05,49,4.10
2008,12,12,05,50,4.10
2008,12,12,05,51,4.10
2008,12,12,05,52,4.10
2008,12,12,05,53,4.10
2008,12,12,05,54,4.10
2008,12,12,05,55,4.10
2008,12,12,05,56,4.10
2008,12,12,05,57,4.10
2008,12,12,05,58,4.10
2008,12,12,05,59,4.10
2008,12,12,06,00,4.00
2008,12,12,06,01,4.00
2008,12,12,06,02,4.00
2008,12,12,06,03,3.90
2008,12,12,06,04,3.90
2008,12,12,06,05,3.90
2008,12,12,06,06,3.90
2008,12,12,06,07,3.90
2008,12,12,06,08,3.90
2008,12,12,06,09,3.90
2008,12,12,06,10,3.80
2008,12,12,06,11,3.80
2008,12,12,06,12,3.80
2008,12,12,06,13,3.80
2008,12,12,06,14,3.80
2008,12,12,06,15,3.80
2008,12,12,06,16,3.80
2008,12,12,06,17,3.80
2008,12,12,06,18,3.80
2008,12,12,06,19,3.80
2008,12,12,06,20,3.80
2008,12,12,06,21,3.80
2008,12,12,06,22,3.80
2008,12,12,06,23,3.80
2008,12,12,06,24,3.80
2008,12,12,06,25,3.80
2008,12,12,06,26,3.80
2008,12,12,06,27,3.70
2008,12,12,06,28,3.70
2008,12,12,06,29,3.70
2008,12,12,06,30,3.70
2008,12,12,06,31,3.70
2008,12,12,06,32,3.70
2008,12,12,06,33,3.80
2008,12,12,06,34,3.80
2008,12,12,06,35,3.80
2008,12,12,06,36,3.80
2008,12,12,06,37,3.80
2008,12,12,06,38,3.80
2008,12,12,06,39,3.90
2008,12,12,06,40,3.90
2008,12,12,06,41,3.90
2008,12,12,06,42,3.90
2008,12,12,06,43,3.90
2008,12,12,06,44,3.90
2008,12,12,06,45,3.90
2008,12,12,06,46,3.90
2008,12,12,06,47,3.90
2008,12,12,06,48,3.90
2008,12,12,06,49,3.90
2008,12,12,06,50,3.90
2008,12,12,06,51,3.90
2008,12,12,06,52,3.90
2008,12,12,06,53,3.90
2008,12,12,06,54,3.90
2008,12,12,06,55,3.90
2008,12,12,06,56,3.90
2008,12,12,06,57,3.90
2008,12,12,06,58,3.90
2008,12,12,06,59,3.90
2008,12,12,07,00,3.90
2008,12,12,07,01,3.90
2008,12,12,07,02,4.00
2008,12,12,07,03,4.00
2008,12,12,07,04,4.00
2008,12,12,07,05,4.00
2008,12,12,07,06,4.00
2008,12,12,07,07,4.00
2008,12,12,07,08,4.00
2008,12,12,07,09,4.00
2008,12,12,07,10,4.00
2008,12,12,07,11,4.00
2008,12,12,07,12,4.10
2008,12,12,07,13,4.10
2008,12,12,07,14,4.10
2008,12,12,07,15,4.10
2008,12,12,07,16,4.10
2008,12,12,07,17,4.10
2008,12,12,07,18,4.10
2008,12,12,07,19,4.10
2008,12,12,07,20,4.10
2008,12,12,07,21,4.10
2008,12,12,07,22,4.10
2008,12,12,07,23,4.10
2008,12,12,07,24,4.10
2008,12,12,07,25,4.10
2008,12,12,07,26,4.10
2008,12,12,07,27,4.10
2008,12,12,07,28,4.10
2008,12,12,07,29,4.10
2008,12,12,07,30,4.10
2008,12,12,07,31,4.10
2008,12,12,07,32,4.10
2008,12,12,07,33,4.10
2008,12,12,07,34,4.10
2008,12,12,07,35,4.10
2008,12,12,07,36,4.10
2008,12,12,07,37,4.00
2008,12,12,07,38,4.00
2008,12,12,07,39,4.00
2008,12,12,07,40,4.00
2008,12,12,07,41,4.00
2008,12,12,07,42,3.90
2008,12,12,07,43,3.90
2008,12,12,07,44,3.90
2008,12,12,07,45,3.90
2008,12,12,07,46,3.90
2008,12,12,07,47,3.90
2008,12,12,07,48,3.90
2008,12,12,07,49,3.90
2008,12,12,07,50,3.90
2008,12,12,07,51,3.90
2008,12,12,07,52,3.90
2008,12,12,07,53,3.90
2008,12,12,07,54,3.90
2008,12,12,07,55,3.90
2008,12,12,07,56,3.90
2008,12,12,07,57,3.90
2008,12,12,07,58,3.90
2008,12,12,07,59,3.90
2008,12,12,08,00,3.90
2008,12,12,08,01,3.90
2008,12,12,08,02,3.90
2008,12,12,08,03,3.90
2008,12,12,08,04,3.90
2008,12,12,08,05,3.90
2008,12,12,08,06,3.90
2008,12,12,08,07,3.90
2008,12,12,08,08,3.90
2008,12,12,08,09,3.90
2008,12,12,08,10,3.90
2008,12,12,08,11,3.90
2008,12,12,08,12,3.90
2008,12,12,08,13,3.90
2008,12,12,08,14,4.00
2008,12,12,08,15,4.00
2008,12,12,08,16,4.00
2008,12,12,08,17,4.00
2008,12,12,08,18,4.00
2008,12,12,08,19,4.00
2008,12,12,08,20,4.00
2008,12,12,08,21,4.10
2008,12,12,08,22,4.10
2008,12,12,08,23,4.10
2008,12,12,08,24,4.10
2008,12,12,08,25,4.10
2008,12,12,08,26,4.00
2008,12,12,08,27,4.00
2008,12,12,08,28,4.00
2008,12,12,08,29,4.00
2008,12,12,08,30,4.00
2008,12,12,08,31,3.90
2008,12,12,08,32,3.90
2008,12,12,08,33,3.90
2008,12,12,08,34,3.90
2008,12,12,08,35,3.90
2008,12,12,08,36,3.90
2008,12,12,08,37,3.90
2008,12,12,08,38,3.90
2008,12,12,08,39,3.90
2008,12,12,08,40,3.90
2008,12,12,08,41,3.90
2008,12,12,08,42,3.90
2008,12,12,08,43,3.90
2008,12,12,08,44,3.90
2008,12,12,08,45,3.90
2008,12,12,08,46,3.90
2008,12,12,08,47,3.90
2008,12,12,08,48,3.90
2008,12,12,08,49,3.90
2008,12,12,08,50,3.90
2008,12,12,08,51,3.90
2008,12,12,08,52,3.90
2008,12,12,08,53,3.90
2008,12,12,08,54,3.90
2008,12,12,08,55,3.90
2008,12,12,08,56,3.90
2008,12,12,08,57,3.90
2008,12,12,08,58,3.90
2008,12,12,08,59,3.90
2008,12,12,09,00,4.00
2008,12,12,09,01,4.00
2008,12,12,09,02,3.90
2008,12,12,09,03,3.90
2008,12,12,09,04,3.90
2008,12,12,09,05,3.90
2008,12,12,09,06,3.90
2008,12,12,09,07,3.90
2008,12,12,09,08,3.90
2008,12,12,09,09,3.90
2008,12,12,09,10,3.80
2008,12,12,09,11,3.80
2008,12,12,09,12,3.80
2008,12,12,09,13,3.80
2008,12,12,09,14,3.80
2008,12,12,09,15,3.80
2008,12,12,09,16,3.90
2008,12,12,09,17,3.90
2008,12,12,09,18,3.90
2008,12,12,09,19,3.90
2008,12,12,09,20,3.90
2008,12,12,09,21,3.90
2008,12,12,09,22,3.90
2008,12,12,09,23,3.90
2008,12,12,09,24,4.00
2008,12,12,09,25,4.00
2008,12,12,09,26,4.00
2008,12,12,09,27,4.00
2008,12,12,09,28,3.90
2008,12,12,09,29,3.90
2008,12,12,09,30,3.90
2008,12,12,09,31,3.90
2008,12,12,09,32,3.90
2008,12,12,09,33,3.90
2008,12,12,09,34,3.90
2008,12,12,09,35,3.90
2008,12,12,09,36,3.80
2008,12,12,09,37,3.80
2008,12,12,09,38,3.80
2008,12,12,09,39,3.80
2008,12,12,09,40,3.80
2008,12,12,09,41,3.80
2008,12,12,09,42,3.80
2008,12,12,09,43,3.80
2008,12,12,09,44,3.80
2008,12,12,09,45,3.80
2008,12,12,09,46,3.80
2008,12,12,09,47,3.80
2008,12,12,09,48,3.80
2008,12,12,09,49,3.80
2008,12,12,09,50,3.80
2008,12,12,09,51,3.80
2008,12,12,09,52,3.80
2008,12,12,09,53,3.80
2008,12,12,09,54,3.80
2008,12,12,09,55,3.80
2008,12,12,09,56,3.80
2008,12,12,09,57,3.80
2008,12,12,10,02,3.70
2008,12,12,10,03,3.70
2008,12,12,10,04,3.80
2008,12,12,10,05,3.80
2008,12,12,10,06,3.70
2008,12,12,10,07,3.70
2008,12,12,10,08,3.70
2008,12,12,10,09,3.70
2008,12,12,10,10,3.70
2008,12,12,10,11,3.70
2008,12,12,10,12,3.70
2008,12,12,10,13,3.70
2008,12,12,10,14,3.70
2008,12,12,10,15,3.70
2008,12,12,10,16,3.70
2008,12,12,10,17,3.70
2008,12,12,10,18,3.70
2008,12,12,10,19,3.70
2008,12,12,10,20,3.70
2008,12,12,10,21,3.70
2008,12,12,10,22,3.70
2008,12,12,10,23,3.70
2008,12,12,10,24,3.60
2008,12,12,10,25,3.60
2008,12,12,10,26,3.60
2008,12,12,10,27,3.60
2008,12,12,10,28,3.70
2008,12,12,10,29,3.70
2008,12,12,10,30,3.70
2008,12,12,10,31,3.70
2008,12,12,10,32,3.70
2008,12,12,10,33,3.70
2008,12,12,10,34,3.70
2008,12,12,10,35,3.70
2008,12,12,10,36,3.70
2008,12,12,10,37,3.70
2008,12,12,10,38,3.70
2008,12,12,10,39,3.70
2008,12,12,10,40,3.70
2008,12,12,10,41,3.70
2008,12,12,10,42,3.80
2008,12,12,10,43,3.80
2008,12,12,10,44,3.80
2008,12,12,10,45,3.80
2008,12,12,10,46,3.80
2008,12,12,10,47,3.80
2008,12,12,10,48,3.80
2008,12,12,10,49,3.80
2008,12,12,10,50,3.80
2008,12,12,10,51,3.80
2008,12,12,10,52,3.80
2008,12,12,10,53,3.80
2008,12,12,10,54,3.80
2008,12,12,10,55,3.80
2008,12,12,10,56,3.80
2008,12,12,10,57,3.80
2008,12,12,10,58,3.80
2008,12,12,10,59,3.80
2008,12,12,11,00,3.80
2008,12,12,11,01,3.80
2008,12,12,11,02,3.90
2008,12,12,11,03,3.90
2008,12,12,11,04,3.90
2008,12,12,11,05,4.00
2008,12,12,11,06,4.00
2008,12,12,11,07,4.10
2008,12,12,11,08,4.10
2008,12,12,11,09,4.10
2008,12,12,11,10,4.20
2008,12,12,11,11,4.30
2008,12,12,11,12,4.30
2008,12,12,11,13,4.40
2008,12,12,11,14,4.50
2008,12,12,11,15,4.50
2008,12,12,11,16,4.60
2008,12,12,11,17,4.60
2008,12,12,11,18,4.60
2008,12,12,11,19,4.70
2008,12,12,11,20,4.70
2008,12,12,11,21,4.70
2008,12,12,11,22,4.80
2008,12,12,11,23,4.80
2008,12,12,11,24,4.80
2008,12,12,11,25,4.80
2008,12,12,11,26,4.80
2008,12,12,11,27,4.80
2008,12,12,11,28,4.80
2008,12,12,11,29,4.80
2008,12,12,11,30,4.80
2008,12,12,11,31,4.70
2008,12,12,11,32,4.70
2008,12,12,11,33,4.70
2008,12,12,11,34,4.70
2008,12,12,11,35,4.70
2008,12,12,11,36,4.70
2008,12,12,11,37,4.70
2008,12,12,11,38,4.70
2008,12,12,11,39,4.70
2008,12,12,11,40,4.70
2008,12,12,11,41,4.70
2008,12,12,11,42,4.70
2008,12,12,11,43,4.70
2008,12,12,11,44,4.70
2008,12,12,11,45,4.60
2008,12,12,11,46,4.60
2008,12,12,11,47,4.60
2008,12,12,11,48,4.60
2008,12,12,11,49,4.60
2008,12,12,11,50,4.60
2008,12,12,11,51,4.60
2008,12,12,11,52,4.60
2008,12,12,11,53,4.60
2008,12,12,11,54,4.60
2008,12,12,11,55,4.60
2008,12,12,11,56,4.60
2008,12,12,11,57,4.60
2008,12,12,11,58,4.60
2008,12,12,11,59,4.60
2008,12,12,12,00,4.60
2008,12,12,12,01,4.60
2008,12,12,12,02,4.60
2008,12,12,12,03,4.60
2008,12,12,12,04,4.60
2008,12,12,12,05,4.60
2008,12,12,12,06,4.60
2008,12,12,12,07,4.60
2008,12,12,12,08,4.70
2008,12,12,12,09,4.70
2008,12,12,12,10,4.70
2008,12,12,12,11,4.70
2008,12,12,12,12,4.70
2008,12,12,12,13,4.70
2008,12,12,12,14,4.70
2008,12,12,12,15,4.70
2008,12,12,12,16,4.70
2008,12,12,12,17,4.70
2008,12,12,12,18,4.70
2008,12,12,12,19,4.70
2008,12,12,12,20,4.70
2008,12,12,12,21,4.70
2008,12,12,12,22,4.70
2008,12,12,12,23,4.70
2008,12,12,12,24,4.70
2008,12,12,12,25,4.80
2008,12,12,12,26,4.80
2008,12,12,12,27,4.80
2008,12,12,12,28,4.80
2008,12,12,12,29,4.80
2008,12,12,12,30,4.80
2008,12,12,12,31,4.80
2008,12,12,12,32,4.80
2008,12,12,12,33,4.80
2008,12,12,13,02,4.80
2008,12,12,13,03,4.80
2008,12,12,13,04,4.80
2008,12,12,13,05,4.80
2008,12,12,13,06,4.80
2008,12,12,13,07,4.80
2008,12,12,13,08,4.80
2008,12,12,13,09,4.70
2008,12,12,13,10,4.70
2008,12,12,13,11,4.70
2008,12,12,13,12,4.70
2008,12,12,13,13,4.70
2008,12,12,13,14,4.70
2008,12,12,13,15,4.70
2008,12,12,13,16,4.70
2008,12,12,13,17,4.70
2008,12,12,13,18,4.70
2008,12,12,13,19,4.70
2008,12,12,13,20,4.70
2008,12,12,13,21,4.70
2008,12,12,13,22,4.70
2008,12,12,13,23,4.70
2008,12,12,13,24,4.80
2008,12,12,13,25,4.80
2008,12,12,13,26,4.80
2008,12,12,13,27,4.80
2008,12,12,13,28,4.80
2008,12,12,13,29,4.80
2008,12,12,13,30,4.80
2008,12,12,13,31,4.80
2008,12,12,13,32,4.80
2008,12,12,13,33,4.80
2008,12,12,13,34,4.80
2008,12,12,13,35,4.80
2008,12,12,13,36,4.80
2008,12,12,13,37,4.80
2008,12,12,13,38,4.80
2008,12,12,13,39,4.80
2008,12,12,13,40,4.80
2008,12,12,13,41,4.80
2008,12,12,13,42,4.80
2008,12,12,13,43,4.80
2008,12,12,13,44,4.80
2008,12,12,13,45,4.80
2008,12,12,13,46,4.80
2008,12,12,13,47,4.80
2008,12,12,13,48,4.80
2008,12,12,13,49,4.80
2008,12,12,13,50,4.80
2008,12,12,13,51,4.80
2008,12,12,13,52,4.90
2008,12,12,13,53,4.90
2008,12,12,13,54,4.90
2008,12,12,13,55,4.90
2008,12,12,13,56,4.90
2008,12,12,13,57,4.90
2008,12,12,13,58,4.90
2008,12,12,13,59,4.90
2008,12,12,14,00,4.90
2008,12,12,14,01,4.90
2008,12,12,14,02,4.90
2008,12,12,14,03,4.90
2008,12,12,14,04,5.00
2008,12,12,14,05,5.00
2008,12,12,14,06,5.00
2008,12,12,14,07,5.00
2008,12,12,14,08,5.00
2008,12,12,14,09,5.00
2008,12,12,14,10,5.10
2008,12,12,14,11,5.10
2008,12,12,14,12,5.10
2008,12,12,14,13,5.10
2008,12,12,14,14,5.10
2008,12,12,14,15,5.10
2008,12,12,14,16,5.10
2008,12,12,14,17,5.10
2008,12,12,14,18,5.10
2008,12,12,14,19,5.10
2008,12,12,14,20,5.10
2008,12,12,14,21,5.10
2008,12,12,14,22,5.10
2008,12,12,14,23,5.10
2008,12,12,14,24,5.10
2008,12,12,14,25,5.10
2008,12,12,14,26,5.10
2008,12,12,14,27,5.10
2008,12,12,14,28,5.10
2008,12,12,14,29,5.10
2008,12,12,14,30,5.10
2008,12,12,14,31,5.10
2008,12,12,14,32,5.10
2008,12,12,14,33,5.10
2008,12,12,14,34,5.00
2008,12,12,14,35,5.00
2008,12,12,14,36,5.00
2008,12,12,14,37,5.00
2008,12,12,14,38,5.00
2008,12,12,14,39,5.00
2008,12,12,14,40,4.90
2008,12,12,14,41,4.90
2008,12,12,14,42,4.90
2008,12,12,14,43,4.90
2008,12,12,14,44,4.90
2008,12,12,14,45,4.90
2008,12,12,14,46,4.90
2008,12,12,14,47,4.90
2008,12,12,14,48,4.90
2008,12,12,14,49,4.90
2008,12,12,14,50,4.90
2008,12,12,14,51,4.90
2008,12,12,14,52,4.90
2008,12,12,14,53,4.90
2008,12,12,14,54,4.90
2008,12,12,14,55,4.90
2008,12,12,14,56,4.90
2008,12,12,14,57,4.90
2008,12,12,14,58,4.90
2008,12,12,14,59,4.90
2008,12,12,15,00,4.90
2008,12,12,15,01,4.90
2008,12,12,15,02,4.90
2008,12,12,15,03,5.00
2008,12,12,15,04,5.00
2008,12,12,15,05,5.00
2008,12,12,15,06,5.00
2008,12,12,15,07,5.10
2008,12,12,15,08,5.10
2008,12,12,15,09,5.10
2008,12,12,15,10,5.10
2008,12,12,15,11,5.10
2008,12,12,15,12,5.10
2008,12,12,15,13,5.10
2008,12,12,15,14,5.10
2008,12,12,15,15,5.10
2008,12,12,15,16,5.10
2008,12,12,15,17,5.10
2008,12,12,15,18,5.20
2008,12,12,15,19,5.20
2008,12,12,15,20,5.20
2008,12,12,15,21,5.20
2008,12,12,15,22,5.20
2008,12,12,15,23,5.20
2008,12,12,15,24,5.20
2008,12,12,15,25,5.20
2008,12,12,15,26,5.20
2008,12,12,15,27,5.20
2008,12,12,15,28,5.20
2008,12,12,15,29,5.20
2008,12,12,15,30,5.20
2008,12,12,15,31,5.20
2008,12,12,15,32,5.10
2008,12,12,15,33,5.10
2008,12,12,15,34,5.10
2008,12,12,15,35,5.10
2008,12,12,15,36,5.00
2008,12,12,15,37,4.90
2008,12,12,15,38,4.70
2008,12,12,15,39,4.30
2008,12,12,15,40,3.80
2008,12,12,15,41,3.40
2008,12,12,15,42,2.90
2008,12,12,15,43,2.60
2008,12,12,15,44,2.40
2008,12,12,15,45,2.10
2008,12,12,15,46,2.00
2008,12,12,15,47,1.80
2008,12,12,15,48,1.80
2008,12,12,15,49,1.70
2008,12,12,15,50,1.60
2008,12,12,15,51,1.60
2008,12,12,15,52,1.60
2008,12,12,15,53,1.60
2008,12,12,15,54,1.60
2008,12,12,15,55,1.50
2008,12,12,15,56,1.50
2008,12,12,15,57,1.50
2008,12,12,15,58,1.50
2008,12,12,15,59,1.50
2008,12,12,16,00,1.50
2008,12,12,16,01,1.50
2008,12,12,16,02,1.40
2008,12,12,16,03,1.40
2008,12,12,16,04,1.30
2008,12,12,16,05,1.30
2008,12,12,16,06,1.30
2008,12,12,16,07,1.30
2008,12,12,16,08,1.30
2008,12,12,16,09,1.30
2008,12,12,16,10,1.30
2008,12,12,16,11,1.30
2008,12,12,16,12,1.30
2008,12,12,16,13,1.30
2008,12,12,16,14,1.30
2008,12,12,16,15,1.30
2008,12,12,16,16,1.30
2008,12,12,16,17,1.30
2008,12,12,16,18,1.30
2008,12,12,16,19,1.30
2008,12,12,16,20,1.20
2008,12,12,16,21,1.20
2008,12,12,16,22,1.20
2008,12,12,16,23,1.20
2008,12,12,16,24,1.20
2008,12,12,16,25,1.20
2008,12,12,16,26,1.20
2008,12,12,16,27,1.20
2008,12,12,16,28,1.20
2008,12,12,16,29,1.20
2008,12,12,16,30,1.20
2008,12,12,16,31,1.20
2008,12,12,16,32,1.20
2008,12,12,16,33,1.30
2008,12,12,16,34,1.30
2008,12,12,16,35,1.30
2008,12,12,16,36,1.30
2008,12,12,16,37,1.30
2008,12,12,16,38,1.30
2008,12,12,16,39,1.30
2008,12,12,16,40,1.30
2008,12,12,16,41,1.30
2008,12,12,16,42,1.30
2008,12,12,16,43,1.40
2008,12,12,16,44,1.40
2008,12,12,16,45,1.40
2008,12,12,16,46,1.50
2008,12,12,16,47,1.50
2008,12,12,16,48,1.60
2008,12,12,16,49,1.60
2008,12,12,16,50,1.60
2008,12,12,16,51,1.60
2008,12,12,16,52,1.70
2008,12,12,16,53,1.70
2008,12,12,16,54,1.70
2008,12,12,16,55,1.70
2008,12,12,16,56,1.70
2008,12,12,16,57,1.80
2008,12,12,16,58,1.80
2008,12,12,16,59,1.80
2008,12,12,17,00,1.80
2008,12,12,17,01,1.80
2008,12,12,17,02,1.80
2008,12,12,17,03,1.90
2008,12,12,17,04,1.90
2008,12,12,17,05,1.90
2008,12,12,17,06,1.90
2008,12,12,17,07,1.90
2008,12,12,17,08,1.90
2008,12,12,17,09,1.90
2008,12,12,17,10,2.00
2008,12,12,17,11,2.00
2008,12,12,17,12,2.00
2008,12,12,17,13,2.00
2008,12,12,17,14,2.10
2008,12,12,17,15,2.10
2008,12,12,17,16,2.10
2008,12,12,17,17,2.10
2008,12,12,17,18,2.10
2008,12,12,17,19,2.10
2008,12,12,17,20,2.10
2008,12,12,17,21,2.10
2008,12,12,17,22,2.10
2008,12,12,17,23,2.20
2008,12,12,17,24,2.20
2008,12,12,17,25,2.20
2008,12,12,17,26,2.20
2008,12,12,17,27,2.20
2008,12,12,17,28,2.20
2008,12,12,17,29,2.10
2008,12,12,17,30,2.10
2008,12,12,17,31,2.20
2008,12,12,17,32,2.20
2008,12,12,17,33,2.20
2008,12,12,17,34,2.20
2008,12,12,17,35,2.20
2008,12,12,17,36,2.20
2008,12,12,17,37,2.20
2008,12,12,17,38,2.20
2008,12,12,17,39,2.20
2008,12,12,17,40,2.20
2008,12,12,17,41,2.20
2008,12,12,17,42,2.20
2008,12,12,17,43,2.20
2008,12,12,17,44,2.20
2008,12,12,17,45,2.20
2008,12,12,17,46,2.30
2008,12,12,17,47,2.30
2008,12,12,17,48,2.30
2008,12,12,17,49,2.30
2008,12,12,17,50,2.30
2008,12,12,17,51,2.30
2008,12,12,17,52,2.30
2008,12,12,17,53,2.30
2008,12,12,17,54,2.30
2008,12,12,17,55,2.30
2008,12,12,17,56,2.30
2008,12,12,17,57,2.30
2008,12,12,17,58,2.30
2008,12,12,17,59,2.30
2008,12,12,18,00,2.30
2008,12,12,18,01,2.30
2008,12,12,18,02,2.30
2008,12,12,18,03,2.30
2008,12,12,18,04,2.30
2008,12,12,18,05,2.20
2008,12,12,18,06,2.20
2008,12,12,18,07,2.20
2008,12,12,18,08,2.20
2008,12,12,18,09,2.20
2008,12,12,18,10,2.20
2008,12,12,18,11,2.20
2008,12,12,18,12,2.20
2008,12,12,18,13,2.20
2008,12,12,18,14,2.20
2008,12,12,18,15,2.20
2008,12,12,18,16,2.20
2008,12,12,18,17,2.20
2008,12,12,18,18,2.20
2008,12,12,18,19,2.20
2008,12,12,18,20,2.20
2008,12,12,18,21,2.20
2008,12,12,18,22,2.20
2008,12,12,18,23,2.20
2008,12,12,18,24,2.30
2008,12,12,18,25,2.30
2008,12,12,18,26,2.30
2008,12,12,18,27,2.30
2008,12,12,18,28,2.30
2008,12,12,18,29,2.30
2008,12,12,18,30,2.30
2008,12,12,18,31,2.30
2008,12,12,18,32,2.30
2008,12,12,18,33,2.30
2008,12,12,18,34,2.30
2008,12,12,18,35,2.40
2008,12,12,18,36,2.40
2008,12,12,18,37,2.40
2008,12,12,18,38,2.40
2008,12,12,18,39,2.40
2008,12,12,18,40,2.40
2008,12,12,18,41,2.40
2008,12,12,18,42,2.40
2008,12,12,18,43,2.40
2008,12,12,18,44,2.40
2008,12,12,18,45,2.40
2008,12,12,18,46,2.40
2008,12,12,18,47,2.40
2008,12,12,18,48,2.50
2008,12,12,18,49,2.40
2008,12,12,18,50,2.50
2008,12,12,18,51,2.50
2008,12,12,18,52,2.50
2008,12,12,18,53,2.50
2008,12,12,18,54,2.50
2008,12,12,18,55,2.50
2008,12,12,18,56,2.60
2008,12,12,18,57,2.60
2008,12,12,18,58,2.60
2008,12,12,18,59,2.60
2008,12,12,19,00,2.60
2008,12,12,19,01,2.60
2008,12,12,19,02,2.60
2008,12,12,19,03,2.60
2008,12,12,19,04,2.60
2008,12,12,19,05,2.60
2008,12,12,19,06,2.70
2008,12,12,19,07,2.70
2008,12,12,19,08,2.70
2008,12,12,19,09,2.70
2008,12,12,19,10,2.60
2008,12,12,19,11,2.70
2008,12,12,19,12,2.60
2008,12,12,19,13,2.70
2008,12,12,19,14,2.70
2008,12,12,19,15,2.70
2008,12,12,19,16,2.70
2008,12,12,19,17,2.70
2008,12,12,19,18,2.70
2008,12,12,19,19,2.70
2008,12,12,19,20,2.70
2008,12,12,19,21,2.70
2008,12,12,19,22,2.70
2008,12,12,19,23,2.70
2008,12,12,19,24,2.70
2008,12,12,19,25,2.70
2008,12,12,19,26,2.70
2008,12,12,19,27,2.70
2008,12,12,19,28,2.70
2008,12,12,19,29,2.70
2008,12,12,19,30,2.70
2008,12,12,19,31,2.70
2008,12,12,19,32,2.70
2008,12,12,19,33,2.70
2008,12,12,19,34,2.70
2008,12,12,19,35,2.70
2008,12,12,19,36,2.70
2008,12,12,19,37,2.70
2008,12,12,19,38,2.70